Hourly Data Report for June 09, 2017

BORDEN AWOS
ONTARIO

44°16'20.000" N
79°54'42.000" W
222.50 m
611B002
71534
YBN

Download Data

Hourly Data (June 2017)
Hourly Data Report for June 9, 2017
TIME
LST
Temp Definition
°C
Dew Point Definition
°C
Rel Hum Definition
%
Precip. Amount Definition
mm

Wind Dir Definition
10's deg

Wind Spd Definition
km/h
Visibility Definition
km
Stn Press Definition
kPa
Hmdx Definition


Wind Chill Definition


Weather Definition


00:00 10.4 9.3 93   14 4 14.5 98.30     LegendNANA
01:00 10.1 9.2 94     0 14.5 98.29     LegendNANA
02:00 10.5 9.4 93   17 6 14.5 98.24     LegendNANA
03:00 9.5 8.7 95   22 6 14.5 98.23     LegendNANA
04:00 8.8 8.2 96     0 14.5 98.19     LegendNANA
05:00 9.0 8.5 97     0 14.5 98.19     LegendNANA
06:00 9.8 8.9 94   19 4 14.5 98.21     LegendNANA
07:00 15.7 11.2 75     0 14.5 98.23     LegendNANA
08:00 18.9 11.5 62   33 4 14.5 98.25     LegendNANA
09:00 20.9 11.2 54   3 9 14.5 98.23     LegendNANA
10:00
11:00
12:00 24.1 13.0 50   30 7 14.5 98.23 27   LegendNANA
13:00 24.9 13.2 48   32 15 14.5 98.22 28   LegendNANA
14:00 23.0 12.2 51   34 17 14.5 98.21 25   LegendNANA
15:00 20.9 10.9 53   36 19 14.5 98.22     LegendNANA
16:00 19.8 10.1 54   34 6 14.5 98.24     LegendNANA
17:00 20.4 11.1 55   35 9 14.5 98.25     LegendNANA
18:00 19.2 11.6 61   35 7 14.5 98.28     LegendNANA
19:00 18.1 12.1 68   34 6 14.5 98.30     LegendNANA
20:00 16.4 13.0 80   34 6 14.5 98.33     LegendNANA
21:00 14.6 12.8 89     0 14.5 98.39     LegendNANA
22:00 13.2 12.2 94   19 4 14.5 98.41     LegendNANA
23:00 13.1 12.2 94     0 14.5 98.43     LegendNANA

Notes on Data Quality.

Legend

  • E = Estimated
  • M = Missing
  • NA = Not Available*
  • [empty] = Indicates an unobserved value
Date modified: